www.pogodaiklimat.ru

ПОГОДА в Смитфилде, NC

  • Прогноз погоды в Смитфилде
  • Монитор погоды в Смитфилде
  • Климат в Смитфилде

АРХИВ ПОГОДЫ в Смитфилде

Время (UTC), дата Ветер
(напр.,м/с)
 
Видим.   Явления Облачность Т
(С)
Тd
(С)
f
(%)
Тe
(С)
Тes
(С)
Комфортность

P
(гПа)

Po
(гПа)
Тmin
(С)
Tmax
(С)
R
(мм)
SD
(см)
04:40 25.06 ЮЗ  16 км    ясно  +27.0  +24.0  84  +37  +37  очень
душно 
  1005.1         
05:00 25.06   16 км    ясно  +27.0  +23.0  79  +36  +36  очень
душно 
  1004.7         
05:20 25.06   16 км    ясно  +26.0  +22.0  79  +34  +34  очень
душно 
  1004.7         
05:40 25.06 ЮЗ  16 км    ясно  +25.0  +23.0  89  +33  +33  очень
душно 
  1005.1         
06:00 25.06 З  16 км    ясно  +26.0  +21.0  74  +33  +33  очень
душно 
  1005.1         
06:20 25.06 ЮЗ  16 км    ясно  +26.0  +21.0  74  +33  +33  очень
душно 
  1004.7         
06:40 25.06   16 км    ясно  +26.0  +21.0  74  +33  +33  очень
душно 
  1004.7         
07:00 25.06   16 км    ясно  +25.0  +21.0  78  +31  +31  очень
душно 
  1004.7         
07:20 25.06 ЮЗ  16 км    ясно  +23.0  +22.0  94  +31  +31  очень
душно 
  1004.7         
07:40 25.06   16 км    ясно  +24.0  +21.0  83  +30  +30  очень
душно 
  1004.7         
08:00 25.06   16 км    ясно  +23.0  +21.0  89  +31  +31  очень
душно 
  1005.1         
08:20 25.06 З  16 км    ясно  +23.0  +21.0  89  +31  +31  очень
душно 
  1005.4         
08:40 25.06 ЮЗ  16 км    ясно  +23.0  +21.0  89  +31  +31  очень
душно 
  1005.4         
09:00 25.06   16 км    ясно  +23.0  +21.0  89  +31  +31  очень
душно 
  1005.8         
09:20 25.06 З  16 км    ясно  +22.0  +21.0  94  +28  +28  душно    1006.1         
09:40 25.06   16 км    ясно  +22.0  +21.0  94  +28  +28  душно    1006.4         
10:00 25.06 З  16 км    ясно  +23.0  +21.0  89  +31  +31  очень
душно 
  1006.4         
10:20 25.06   16 км    ясно  +23.0  +21.0  89  +31  +32  очень
душно 
  1006.8         
10:40 25.06 З  16 км    ясно  +24.0  +21.0  83  +30  +31  очень
душно 
  1007.1         
11:00 25.06 З  16 км    ясно  +25.0  +21.0  78  +31  +35  очень
душно 
  1007.1         
11:20 25.06   16 км    ясно  +26.0  +21.0  74  +33  +37  очень
душно 
  1007.4         
11:40 25.06 СЗ  16 км    ясно  +26.0  +21.0  74  +33  +36  очень
душно 
  1007.4         
12:00 25.06 З  16 км    ясно  +26.0  +20.0  70  +32  +40  очень
душно 
  1007.8         
12:20 25.06 СЗ  16 км    ясно  +27.0  +20.0  66  +33  +40  очень
душно 
  1008.1         
12:40 25.06 СЗ  16 км    ясно  +27.0  +20.0  66  +33  +38  очень
душно 
  1008.1         
13:00 25.06 СЗ  16 км    ясно  +28.0  +20.0  62  +34  +45  очень
душно 
  1008.1         
13:20 25.06   16 км    ясно  +28.0  +19.0  58  +33  +49  очень
душно 
  1008.1         
13:40 25.06 СЗ  16 км    ясно  +29.0  +19.0  55  +34  +45  очень
душно 
  1008.1         
14:00 25.06 С  16 км    ясно  +30.0  +18.0  49  +35  +49  очень
душно 
  1008.1         
14:20 25.06 СЗ  16 км    ясно  +30.0  +18.0  49  +35  +48  очень
душно 
  1008.4         
14:40 25.06 СЗ  16 км    5/5 1320 м  +30.0  +18.0  49  +35  +41  очень
душно 
  1008.4         
15:00 25.06 СЗ  16 км    5/5 1320 м  +30.0  +18.0  49  +35  +45  очень
душно 
  1008.1         
15:20 25.06 З  16 км    ясно  +30.0  +18.0  49  +35  +52  опасность
солнечного
удара 
  1008.1         
15:40 25.06 СЗ  16 км    ясно  +31.0  +18.0  46  +35  +50  очень
душно 
  1008.4         
16:00 25.06 С  16 км    5/5 1500 м  +31.0  +18.0  46  +35  +43  очень
душно 
  1008.4         
16:20 25.06 С  16 км    5/5 1500 м  +31.0  +17.0  43  +35  +43  очень
душно 
  1008.1         
16:40 25.06 СЗ  16 км    5/5 1500 м  +31.0  +18.0  46  +35  +43  очень
душно 
  1008.1         
17:00 25.06 С  16 км    5/5 1500 м  +31.0  +18.0  46  +35  +45  очень
душно 
  1008.1         
17:20 25.06 СЗ  16 км    5/5 1500 м  +31.0  +17.0  43  +35  +46  очень
душно 
  1007.8         
17:40 25.06 С  16 км    5/5 1650 м  +32.0  +18.0  43  +36  +46  очень
душно 
  1007.8         
18:00 25.06   16 км    8/8 1650 м
[средняя] 
+32.0  +18.0  43  +36  +41  очень
душно 
  1007.8         
18:20 25.06 С  16 км    8/5 1650 м
[средняя] 
+31.0  +18.0  46  +35  +41  очень
душно 
  1007.8         
18:40 25.06 СЗ  16 км    5/5 1650 м  +32.0  +18.0  43  +36  +44  очень
душно 
  1007.8         
19:00 25.06 СЗ  16 км    5/5 1800 м  +31.0  +18.0  46  +35  +42  очень
душно 
  1007.8         
19:20 25.06 СЗ  16 км    5/5 1800 м  +32.0  +18.0  43  +36  +43  очень
душно 
  1007.4         
19:40 25.06 С  16 км    ясно  +31.0  +17.0  43  +35  +49  очень
душно 
  1007.4         
20:00 25.06 С  16 км    8/5 1800 м
[средняя] 
+31.0  +18.0  46  +35  +38  очень
душно 
  1007.4         
20:20 25.06   16 км    5/0 2400 м
[средняя] 
+31.0  +19.0  49  +36  +44  очень
душно 
  1007.4         

 

Местоположение метеостанции Johnston County Airport: широта 35.5408 долгота -78.3903 высота над уровнем моря 50 м.

В архиве по умолчанию представлена погода в Смитфилде за последние 1-2 суток. Обновление информации о фактической погоде в базе происходит ежечасно! Архивные данные за месяц целиком и за предыдущие месяцы Вы можете получить, выбрав интересующий диапазон дат из раскрывающегося списка и нажав кнопку "Ввод!".

Внимание! Архив погоды МЕТАР в базе сайта хранится не более 60 дней. Нет смысла пытаться выбрать более раннюю дату.

Внимание! Время в таблицах - всемирное. Для получения местного времени необходимо прибавить поправку, которая в Смитфилде равна -5 ч.

Ветер - указаны скорость ветра в м/с и направление, откуда дует ветер: С - северный, СВ - северо-восточный, В - восточный, ЮВ - юго-восточный, Ю - южный, ЮЗ - юго-западный, З - западный, СЗ - северо-западный.
Видимость - горизонтальная дальность видимости в метрах или километрах. При видимости от 1 до 10 км при отсутствии осадков обычно наблюдается дымка, при ухудшении видимости до 1 км и менее - туман. В сухую погоду видимость может ухудшаться дымом, пылью или мглою.
Атмосферные явления - указаны явления, наблюдавшиеся в указанный момент времени.
Облачность - указаны через наклонную черту верхняя и нижняя облачность в баллах и высота нижней границы облаков в метрах. Внимание: облачность, как и прочие метеорологические величины в США измеряются автоматическими метеостанциями. Указанные значения в баллах носят условный характер и показывают процент времени, в течение которого, в среднем, лазерный луч высотомера отражался от облаков обратно.
T - Температура воздуха - температура, измеренная на высоте 2 м над землей.
Td - Температура точки росы - температура, при понижении до которой содержащийся в воздухе водяной пар достигнет насыщения.
f - Относительная влажность воздуха - влажноcть воздуха, измеренная на высоте 2 м над землей.
Te - Эффективная температура - температура, которую ощущает одетый по сезону человек в тени. Характеристика душности погоды. При расчете учитывается влияние влажности воздуха и скорости ветра на теплоощущения человека.
Tes - Эффективная температура на солнце - температура, которую ощущает человек, с поправкой на солнечный нагрев. Характеристика знойности погоды. Зависит от высоты солнца над горизонтом, облачности и скорости ветра. Ночью, в пасмурную погоду, а также при ветре 12 м/с и более поправка равна нулю.
P - Атмосферное давление - приведенное к уровню моря атмосферное давление.
Po - Атмосферное давление - измеренное на уровне метеостанции атмосферное давление.
Tmin - Минимальная температура - минимум температуры воздуха на высоте 2 м над землей.
Tmax - Максимальная температура - максимум температуры воздуха на высоте 2 м над землей.
R - Количество осадков - Количество выпавших осадков за 3 или 6 часов, мм.
SD - Снежный покров - Высота снежного покрова, см.